EW5800 Weather Reports


Display with metric or nautical units.
time (UTC)temp
F
wind
direction
speed
MPH
gust
MPH
rain 1hr
in
rain 24hr
in
rain mn
in
humidity
%
barometer
mb
20260901031502 66 310 0.0 0.0 0.00 0.00 0.00 74 1007.2
20260901030003 67 310 0.0 0.0 0.00 0.00 0.00 71 1007.3
20260901024502 68 318 0.0 0.0 0.00 0.00 0.00 69 1007.4
20260901023100 68 5 0.0 0.0 0.00 0.00 0.00 68 1007.5
20260901021558 69 5 0.0 0.0 0.00 0.00 0.00 67 1007.7
20260901020057 69 5 0.0 2.0 0.00 0.00 0.00 65 1007.7
20260901014600 69 91 0.0 6.0 0.00 0.00 0.00 64 1007.7
20260901013057 70 352 0.0 4.0 0.00 0.00 0.00 61 1007.9
20260901011553 70 329 0.0 3.0 0.00 0.00 0.00 64 1008.0
20260901010054 71 51 0.0 3.0 0.00 0.00 0.00 62 1008.1
20260901004551 71 330 0.0 3.0 0.00 0.00 0.00 60 1008.2
20260901003049 71 294 0.0 3.0 0.00 0.00 0.00 59 1008.4
20260901001555 72 338 0.0 4.0 0.00 0.00 0.00 59 1008.6
20260901000050 72 330 1.0 6.0 0.00 0.00 0.00 58 1008.7
20260831234600 72 338 0.0 6.0 0.00 0.00 0.00 59 1008.9
20260831233048 73 305 0.0 5.0 0.00 0.00 0.00 58 1009.0
20260831231539 74 4 1.0 6.0 0.00 0.00 0.00 57 1009.1
20260831230038 74 109 0.0 5.0 0.00 0.00 0.00 57 1009.2
20260831224536 75 317 1.0 6.0 0.00 0.00 0.00 55 1009.4
20260831223034 74 266 1.0 5.0 0.00 0.00 0.00 56 1009.7
20260831221536 74 297 1.0 8.0 0.00 0.00 0.00 57 1009.9
20260831220030 73 11 2.0 6.0 0.00 0.00 0.00 58 1010.1
20260831214528 73 344 2.0 5.0 0.00 0.00 0.00 58 1010.3
20260831213027 74 64 1.0 6.0 0.00 0.00 0.00 57 1010.4
20260831211526 74 345 0.0 6.0 0.00 0.00 0.00 57 1010.5
20260831210023 75 56 0.0 4.0 0.00 0.00 0.00 57 1010.7
20260831204528 75 45 0.0 4.0 0.00 0.00 0.00 56 1010.9
20260831203023 73 309 1.0 7.0 0.00 0.00 0.00 59 1011.1
20260831201518 74 40 1.0 7.0 0.00 0.00 0.00 58 1011.1
20260831200016 75 299 0.0 5.0 0.00 0.00 0.00 54 1011.2
20260831194515 76 118 0.0 3.0 0.00 0.00 0.00 53 1011.4
20260831193018 75 124 0.0 3.0 0.00 0.00 0.00 55 1011.8
20260831191509 75 77 1.0 4.0 0.00 0.00 0.00 55 1012.0
20260831190008 74 56 0.0 2.0 0.00 0.00 0.00 55 1012.1
20260831184504 73 300 0.0 2.0 0.00 0.00 0.00 56 1012.2
20260831183002 71 44 0.0 3.0 0.00 0.00 0.00 59 1012.4
20260831181600 71 96 0.0 3.0 0.00 0.00 0.00 59 1012.7
20260831180057 70 170 0.0 1.0 0.00 0.00 0.00 61 1012.7
20260831174553 68 51 0.0 2.0 0.00 0.00 0.00 63 1012.9
20260831173051 68 23 0.0 2.0 0.00 0.00 0.00 65 1012.9
20260831171545 65 164 0.0 3.0 0.00 0.00 0.00 72 1013.0
20260831170049 63 163 0.0 3.0 0.00 0.00 0.00 73 1013.1
20260831164538 62 49 0.0 2.0 0.00 0.00 0.00 76 1013.1
20260831163044 62 73 0.0 3.0 0.00 0.00 0.00 76 1013.2
20260831161531 60 68 0.0 1.0 0.00 0.00 0.00 83 1013.3
20260831160027 59 162 0.0 1.0 0.00 0.00 0.00 85 1013.6
20260831154523 58 202 0.0 1.0 0.00 0.00 0.00 87 1013.9
20260831153021 57 335 0.0 0.0 0.00 0.00 0.00 89 1013.8
20260831151525 55 335 0.0 0.0 0.00 0.00 0.00 91 1013.9
20260831150021 54 334 0.0 0.0 0.00 0.00 0.00 91 1013.9
20260831144520 54 335 0.0 0.0 0.00 0.00 0.00 91 1013.7
20260831143020 53 335 0.0 0.0 0.00 0.00 0.00 91 1013.9
20260831141518 52 335 0.0 0.0 0.00 0.00 0.00 91 1013.9
20260831140020 52 335 0.0 0.0 0.00 0.00 0.00 91 1013.8
20260831134524 52 335 0.0 0.0 0.00 0.00 0.00 91 1013.8
20260831133018 52 335 0.0 0.0 0.00 0.00 0.00 91 1013.9
20260831131514 52 335 0.0 0.0 0.00 0.00 0.00 91 1014.0
20260831130014 52 335 0.0 0.0 0.00 0.00 0.00 92 1014.1
20260831124510 53 335 0.0 0.0 0.00 0.00 0.00 91 1014.2
20260831123011 53 335 0.0 0.0 0.00 0.00 0.00 91 1014.3
20260831121506 53 335 0.0 0.0 0.00 0.00 0.00 91 1014.2
20260831120006 54 335 0.0 0.0 0.00 0.00 0.00 91 1014.3
20260831114505 54 334 0.0 0.0 0.00 0.00 0.00 91 1014.3
20260831113100 54 334 0.0 0.0 0.00 0.00 0.00 91 1014.5
20260831111606 54 335 0.0 0.0 0.00 0.00 0.00 91 1014.7
20260831110101 54 335 0.0 0.0 0.00 0.00 0.00 91 1014.9
20260831104555 54 335 0.0 0.0 0.00 0.00 0.00 91 1014.9
20260831103055 55 335 0.0 0.0 0.00 0.00 0.00 91 1015.0
20260831101555 55 335 0.0 0.0 0.00 0.00 0.00 91 1015.1
20260831100051 55 335 0.0 0.0 0.00 0.00 0.00 91 1015.1
20260831094549 55 335 0.0 0.0 0.00 0.00 0.00 91 1015.4
20260831093046 55 335 0.0 0.0 0.00 0.00 0.00 91 1015.6
20260831091548 55 335 0.0 0.0 0.00 0.00 0.00 91 1015.6
20260831090044 55 335 0.0 0.0 0.00 0.00 0.00 91 1015.8
20260831084541 55 335 0.0 1.0 0.00 0.00 0.00 91 1015.9
20260831083041 56 334 0.0 0.0 0.00 0.00 0.00 91 1016.1
20260831081538 56 334 0.0 0.0 0.00 0.00 0.00 91 1016.2
20260831080035 56 334 0.0 0.0 0.00 0.00 0.00 90 1016.3
20260831074534 56 334 0.0 0.0 0.00 0.00 0.00 90 1016.3
20260831073032 57 334 0.0 0.0 0.00 0.00 0.00 90 1016.4
20260831071537 57 334 0.0 0.0 0.00 0.00 0.00 89 1016.5
20260831070026 57 334 0.0 0.0 0.00 0.00 0.00 89 1016.6
20260831064531 58 334 0.0 0.0 0.00 0.00 0.00 88 1016.6
20260831063027 58 335 0.0 0.0 0.00 0.00 0.00 88 1016.6
20260831061522 59 335 0.0 0.0 0.00 0.00 0.00 87 1016.7
20260831060021 60 335 0.0 0.0 0.00 0.00 0.00 85 1016.8
20260831054520 60 356 0.0 1.0 0.00 0.00 0.00 84 1016.9
20260831053023 61 350 0.0 1.0 0.00 0.00 0.00 83 1017.0
20260831051528 61 46 0.0 1.0 0.00 0.00 0.00 82 1017.1
20260831050017 61 20 0.0 2.0 0.00 0.00 0.00 82 1017.3
20260831044517 61 2 0.0 1.0 0.00 0.00 0.00 82 1017.3
20260831043016 61 23 0.0 2.0 0.00 0.00 0.00 81 1017.4
20260831041515 62 280 0.0 1.0 0.00 0.00 0.00 80 1017.5
20260831040032 62 345 0.0 1.0 0.00 0.00 0.00 80 1017.5
20260831034516 62 60 0.0 1.0 0.00 0.00 0.00 79 1017.5
20260831033014 62 52 0.0 1.0 0.00 0.00 0.00 79 1017.3